User: anonymous   Login
Location: Unspecified
(0.0000°N, 0.0000°E)
Time: 04:48:39
(UTC+00:00)
Language:

HORYU 2 - Orbit

View from above orbital plane
View from above orbital plane
View from above satellite
View from above satellite

Ground track
Ground track

The orbit data is extracted from the following two-line orbital elements,

1 38340U 12025D   18350.07541137  .00000157  00000-0  31079-4 0  9990
2 38340  98.3514  17.9021 0011349 358.4720   1.6451 14.75642194353930
Epoch (UTC): 16 December 2018 01:48:35
Eccentricity: 0.0011349
inclination: 98.3514°
perigee height: 635 km
apogee height: 651 km
right ascension of ascending node: 17.9021°
argument of perigee: 358.4720°
revolutions per day: 14.75642194
mean anomaly at epoch: 1.6451°
orbit number at epoch: 35393

The dashed part of the orbit path shows where the satellite is in the earth's shadow,  

DLR